| time (UTC) | temp F | wind direction | speed MPH | gust MPH | rain 1hr in | rain 24hr in | rain mn in | humidity % | barometer mb |
| 20260508030043 | 45 | 0 | 0.0 | 0.0 | 0.00 | 0.02 | 0.00 | 95 | 1012.2 |
| 20260508024540 | 45 | 0 | 0.0 | 0.0 | 0.00 | 0.02 | 0.00 | 95 | 1012.1 |
| 20260508023040 | 45 | 0 | 0.0 | 0.0 | 0.00 | 0.02 | 0.00 | 94 | 1012.1 |
| 20260508021546 | 45 | 0 | 0.0 | 0.0 | 0.00 | 0.02 | 0.00 | 94 | 1012.0 |
| 20260508020038 | 45 | 0 | 0.0 | 0.0 | 0.00 | 0.02 | 0.00 | 94 | 1011.9 |
| 20260508014537 | 45 | 0 | 0.0 | 0.0 | 0.00 | 0.02 | 0.00 | 94 | 1011.7 |
| 20260508013041 | 45 | 190 | 0.0 | 1.0 | 0.00 | 0.02 | 0.00 | 94 | 1011.8 |
| 20260508011539 | 45 | 0 | 0.0 | 2.0 | 0.00 | 0.02 | 0.00 | 94 | 1011.7 |
| 20260508010038 | 45 | 190 | 0.0 | 3.0 | 0.00 | 0.02 | 0.00 | 93 | 1011.7 |
| 20260508004540 | 45 | 190 | 0.0 | 2.0 | 0.00 | 0.02 | 0.00 | 93 | 1011.7 |
| 20260508003038 | 46 | 190 | 1.0 | 2.0 | 0.00 | 0.02 | 0.00 | 92 | 1011.6 |
| 20260508001539 | 46 | 0 | 0.0 | 1.0 | 0.00 | 0.02 | 0.00 | 91 | 1011.6 |
| 20260508000036 | 47 | 0 | 0.0 | 3.0 | 0.00 | 0.02 | 0.00 | 91 | 1011.6 |
| 20260507234537 | 47 | 0 | 0.0 | 2.0 | 0.00 | 0.02 | 0.00 | 90 | 1011.4 |
| 20260507233038 | 47 | 190 | 0.0 | 1.0 | 0.00 | 0.02 | 0.00 | 90 | 1011.4 |
| 20260507231537 | 48 | 0 | 0.0 | 2.0 | 0.00 | 0.02 | 0.00 | 89 | 1011.3 |
| 20260507230048 | 48 | 190 | 0.0 | 2.0 | 0.00 | 0.02 | 0.00 | 88 | 1011.4 |
| 20260507224543 | 48 | 0 | 0.0 | 3.0 | 0.00 | 0.02 | 0.02 | 88 | 1011.3 |
| 20260507223038 | 48 | 190 | 0.0 | 3.0 | 0.00 | 0.02 | 0.02 | 88 | 1011.2 |
| 20260507221537 | 48 | 190 | 0.0 | 2.0 | 0.00 | 0.02 | 0.02 | 88 | 1011.2 |
| 20260507220038 | 48 | 0 | 0.0 | 0.0 | 0.00 | 0.02 | 0.02 | 89 | 1011.0 |
| 20260507214554 | 49 | 0 | 0.0 | 0.0 | 0.00 | 0.02 | 0.02 | 88 | 1011.1 |
| 20260507213040 | 50 | 0 | 0.0 | 5.0 | 0.00 | 0.02 | 0.02 | 87 | 1010.9 |
| 20260507211538 | 50 | 190 | 1.0 | 7.0 | 0.00 | 0.02 | 0.02 | 86 | 1010.8 |
| 20260507210051 | 51 | 190 | 2.0 | 8.0 | 0.00 | 0.02 | 0.02 | 84 | 1010.6 |
| 20260507204538 | 50 | 190 | 1.0 | 6.0 | 0.00 | 0.02 | 0.02 | 85 | 1010.4 |
| 20260507203047 | 50 | 190 | 2.0 | 6.0 | 0.00 | 0.02 | 0.02 | 84 | 1010.3 |
| 20260507201543 | 50 | 190 | 2.0 | 5.0 | 0.00 | 0.02 | 0.02 | 84 | 1010.3 |
| 20260507200043 | 50 | 190 | 2.0 | 6.0 | 0.00 | 0.02 | 0.02 | 84 | 1010.1 |
| 20260507194608 | 51 | 190 | 2.0 | 5.0 | 0.00 | 0.02 | 0.02 | 85 | 1009.9 |
| 20260507193041 | 51 | 190 | 2.0 | 6.0 | 0.00 | 0.02 | 0.02 | 83 | 1009.9 |
| 20260507191542 | 52 | 190 | 3.0 | 8.0 | 0.00 | 0.02 | 0.02 | 82 | 1009.8 |
| 20260507190037 | 52 | 190 | 4.0 | 8.0 | 0.00 | 0.02 | 0.02 | 81 | 1010.0 |
| 20260507184540 | 52 | 190 | 3.0 | 9.0 | 0.00 | 0.02 | 0.02 | 80 | 1009.8 |
| 20260507183055 | 53 | 190 | 3.0 | 11.0 | 0.00 | 0.02 | 0.02 | 80 | 1009.8 |
| 20260507181539 | 55 | 190 | 4.0 | 11.0 | 0.00 | 0.02 | 0.02 | 77 | 1009.7 |
| 20260507180041 | 55 | 190 | 4.0 | 11.0 | 0.00 | 0.02 | 0.02 | 77 | 1009.8 |
| 20260507174543 | 55 | 190 | 4.0 | 10.0 | 0.00 | 0.02 | 0.02 | 77 | 1009.7 |
| 20260507173039 | 55 | 190 | 3.0 | 9.0 | 0.00 | 0.02 | 0.02 | 77 | 1009.7 |
| 20260507171545 | 54 | 190 | 4.0 | 11.0 | 0.00 | 0.02 | 0.02 | 78 | 1009.7 |
| 20260507170046 | 54 | 190 | 4.0 | 9.0 | 0.00 | 0.02 | 0.02 | 79 | 1009.8 |
| 20260507164538 | 56 | 0 | 5.0 | 15.0 | 0.00 | 0.02 | 0.02 | 76 | 1009.7 |
| 20260507163040 | 55 | 190 | 4.0 | 11.0 | 0.00 | 0.02 | 0.02 | 76 | 1009.7 |
| 20260507161540 | 54 | 190 | 2.0 | 10.0 | 0.00 | 0.02 | 0.02 | 78 | 1009.9 |
| 20260507160037 | 54 | 190 | 4.0 | 10.0 | 0.00 | 0.02 | 0.02 | 77 | 1010.0 |
| 20260507154537 | 52 | 190 | 4.0 | 11.0 | 0.00 | 0.02 | 0.02 | 79 | 1010.1 |
| 20260507153043 | 52 | 190 | 3.0 | 9.0 | 0.00 | 0.02 | 0.02 | 77 | 1010.1 |
| 20260507151539 | 53 | 190 | 4.0 | 8.0 | 0.00 | 0.02 | 0.02 | 77 | 1010.0 |
| 20260507150038 | 52 | 190 | 2.0 | 10.0 | 0.01 | 0.02 | 0.02 | 79 | 1010.0 |
| 20260507144537 | 52 | 190 | 3.0 | 7.0 | 0.02 | 0.02 | 0.02 | 79 | 1010.3 |
| 20260507143038 | 51 | 190 | 2.0 | 10.0 | 0.02 | 0.02 | 0.02 | 82 | 1010.4 |
| 20260507141542 | 50 | 190 | 3.0 | 8.0 | 0.02 | 0.02 | 0.02 | 84 | 1010.5 |
| 20260507140041 | 52 | 190 | 4.0 | 9.0 | 0.00 | 0.00 | 0.00 | 80 | 1010.6 |
| 20260507134539 | 53 | 190 | 3.0 | 12.0 | 0.00 | 0.00 | 0.00 | 78 | 1010.5 |
| 20260507133038 | 53 | 190 | 4.0 | 12.0 | 0.00 | 0.00 | 0.00 | 77 | 1010.6 |
| 20260507131550 | 54 | 190 | 5.0 | 12.0 | 0.00 | 0.00 | 0.00 | 75 | 1010.5 |
| 20260507130040 | 55 | 190 | 5.0 | 12.0 | 0.00 | 0.00 | 0.00 | 72 | 1010.3 |
| 20260507124537 | 55 | 190 | 6.0 | 17.0 | 0.00 | 0.00 | 0.00 | 74 | 1010.5 |
| 20260507123037 | 55 | 190 | 5.0 | 10.0 | 0.00 | 0.00 | 0.00 | 73 | 1010.6 |
| 20260507121543 | 55 | 190 | 2.0 | 4.0 | 0.00 | 0.00 | 0.00 | 75 | 1010.7 |
| 20260507120039 | 54 | 190 | 4.0 | 9.0 | 0.00 | 0.00 | 0.00 | 74 | 1010.7 |
| 20260507114540 | 54 | 190 | 2.0 | 7.0 | 0.00 | 0.04 | 0.00 | 75 | 1010.5 |
| 20260507113039 | 54 | 190 | 3.0 | 11.0 | 0.00 | 0.04 | 0.00 | 74 | 1010.6 |
| 20260507111537 | 55 | 190 | 5.0 | 13.0 | 0.00 | 0.04 | 0.00 | 73 | 1010.6 |
| 20260507110038 | 53 | 190 | 5.0 | 11.0 | 0.00 | 0.04 | 0.00 | 76 | 1010.8 |
| 20260507104539 | 53 | 190 | 5.0 | 12.0 | 0.00 | 0.11 | 0.00 | 78 | 1010.9 |
| 20260507103038 | 52 | 190 | 3.0 | 10.0 | 0.00 | 0.11 | 0.00 | 80 | 1010.9 |
| 20260507101538 | 51 | 190 | 4.0 | 10.0 | 0.00 | 0.11 | 0.00 | 81 | 1010.8 |
| 20260507100048 | 50 | 190 | 3.0 | 9.0 | 0.00 | 0.11 | 0.00 | 81 | 1010.8 |
| 20260507094537 | 50 | 190 | 2.0 | 6.0 | 0.00 | 0.14 | 0.00 | 81 | 1010.8 |
| 20260507093046 | 50 | 190 | 2.0 | 6.0 | 0.00 | 0.14 | 0.00 | 81 | 1010.9 |
| 20260507091538 | 50 | 190 | 2.0 | 5.0 | 0.00 | 0.14 | 0.00 | 79 | 1010.8 |
| 20260507090040 | 49 | 190 | 2.0 | 6.0 | 0.00 | 0.14 | 0.00 | 78 | 1010.8 |
| 20260507084543 | 49 | 190 | 2.0 | 6.0 | 0.00 | 0.18 | 0.00 | 79 | 1010.9 |
| 20260507083038 | 48 | 190 | 0.0 | 4.0 | 0.00 | 0.18 | 0.00 | 83 | 1010.8 |
| 20260507081537 | 47 | 190 | 1.0 | 4.0 | 0.00 | 0.18 | 0.00 | 84 | 1010.9 |
| 20260507080042 | 47 | 190 | 1.0 | 6.0 | 0.00 | 0.18 | 0.00 | 85 | 1010.9 |
| 20260507074539 | 47 | 190 | 0.0 | 4.0 | 0.00 | 0.22 | 0.00 | 87 | 1010.8 |
| 20260507073041 | 46 | 190 | 1.0 | 4.0 | 0.00 | 0.22 | 0.00 | 87 | 1010.8 |
| 20260507071600 | 46 | 0 | 0.0 | 4.0 | 0.00 | 0.22 | 0.00 | 88 | 1010.7 |
| 20260507070039 | 46 | 190 | 1.0 | 5.0 | 0.00 | 0.22 | 0.00 | 89 | 1010.6 |
| 20260507064537 | 46 | 190 | 1.0 | 5.0 | 0.00 | 0.28 | 0.00 | 89 | 1010.6 |
| 20260507063045 | 46 | 190 | 1.0 | 6.0 | 0.00 | 0.28 | 0.00 | 90 | 1010.6 |
| 20260507061540 | 45 | 0 | 0.0 | 4.0 | 0.00 | 0.28 | 0.00 | 91 | 1010.5 |
| 20260507060042 | 45 | 190 | 0.0 | 4.0 | 0.00 | 0.28 | 0.00 | 92 | 1010.6 |
| 20260507054538 | 45 | 0 | 1.0 | 5.0 | 0.00 | 0.29 | 0.00 | 92 | 1010.4 |
| 20260507053106 | 45 | 190 | 1.0 | 4.0 | 0.00 | 0.29 | 0.00 | 94 | 1010.4 |
| 20260507051543 | 44 | 0 | 0.0 | 3.0 | 0.00 | 0.29 | 0.00 | 95 | 1010.4 |
| 20260507050044 | 44 | 190 | 0.0 | 1.0 | 0.00 | 0.29 | 0.00 | 96 | 1010.4 |
| 20260507044538 | 43 | 0 | 0.0 | 0.0 | 0.00 | 0.30 | 0.00 | 96 | 1010.4 |
| 20260507043038 | 43 | 0 | 0.0 | 0.0 | 0.00 | 0.30 | 0.00 | 95 | 1010.5 |
| 20260507041540 | 44 | 0 | 0.0 | 2.0 | 0.00 | 0.30 | 0.00 | 95 | 1010.4 |
| 20260507040040 | 45 | 190 | 0.0 | 4.0 | 0.00 | 0.30 | 0.00 | 96 | 1010.2 |
| 20260507034539 | 45 | 190 | 2.0 | 5.0 | 0.00 | 0.30 | 0.00 | 97 | 1010.2 |
| 20260507033044 | 44 | 190 | 2.0 | 6.0 | 0.00 | 0.30 | 0.00 | 97 | 1010.2 |
| 20260507031538 | 44 | 190 | 2.0 | 5.0 | 0.00 | 0.30 | 0.00 | 97 | 1010.5 |